AAL39 EGLL-KMIA

Flight info

Callsign AAL39
Flight time N/A
Altitude 32000
Route CPT L9 BUCGO DCT FELCA DCT NICXI DCT BAKUR HEADI Q97 KALDA DCT BGBRD Q101 SKARP Y313 HOAGG BNFSH3
Aircraft B77W/H-SDE1E2E3FGHIJ2J3J4J5M1RWXY/LB1D1

Departure

Time N/A
Airport London Heathrow Airport (EGLL)

Arrival

Time 2026-05-03 21:14
Airport Miami International Airport (KMIA)
Time Latitude Longitude Altitude Speed Heading
2026-05-03 20:16 30.40225 -78.64114 36103 ft 415 kts 206°
2026-05-03 20:17 30.34666 -78.65937 36115 ft 415 kts 206°
2026-05-03 20:17 30.29100 -78.67759 36120 ft 416 kts 206°
2026-05-03 20:18 30.23566 -78.69569 36116 ft 416 kts 206°
2026-05-03 20:18 30.17988 -78.71391 36108 ft 416 kts 206°
2026-05-03 20:19 30.12422 -78.73210 36107 ft 415 kts 206°
2026-05-03 20:19 30.06863 -78.75027 36105 ft 415 kts 206°
2026-05-03 20:20 30.01312 -78.76840 36106 ft 414 kts 206°
2026-05-03 20:20 29.95764 -78.78649 36107 ft 414 kts 206°
2026-05-03 20:21 29.90251 -78.80446 36060 ft 414 kts 206°
2026-05-03 20:21 29.84711 -78.82248 36096 ft 415 kts 206°
2026-05-03 20:22 29.79148 -78.84057 36103 ft 416 kts 205°
2026-05-03 20:22 29.73589 -78.85925 36106 ft 416 kts 206°
2026-05-03 20:23 29.68084 -78.87840 36107 ft 417 kts 206°
2026-05-03 20:23 29.62530 -78.89769 36074 ft 417 kts 206°
2026-05-03 20:24 29.56979 -78.91686 36086 ft 417 kts 206°
2026-05-03 20:24 29.51419 -78.93600 36095 ft 417 kts 206°
2026-05-03 20:25 29.45855 -78.95513 36091 ft 418 kts 206°
2026-05-03 20:25 29.40327 -78.97410 36090 ft 418 kts 206°
2026-05-03 20:26 29.34763 -78.99318 36064 ft 417 kts 206°
2026-05-03 20:26 29.29203 -79.01221 36080 ft 417 kts 206°
2026-05-03 20:27 29.23648 -79.03122 36088 ft 417 kts 206°
2026-05-03 20:27 29.18084 -79.05023 36084 ft 417 kts 206°
2026-05-03 20:28 29.12556 -79.06911 36089 ft 418 kts 206°
2026-05-03 20:28 29.06982 -79.08812 36051 ft 418 kts 206°
2026-05-03 20:29 29.01417 -79.10706 36071 ft 418 kts 206°
2026-05-03 20:29 28.95845 -79.12602 36076 ft 418 kts 206°
2026-05-03 20:30 28.90271 -79.14496 36079 ft 418 kts 206°
2026-05-03 20:30 28.84728 -79.16378 36079 ft 418 kts 206°
2026-05-03 20:31 28.79149 -79.18269 36047 ft 418 kts 206°
2026-05-03 20:31 28.73575 -79.20156 36073 ft 418 kts 206°
2026-05-03 20:32 28.67994 -79.22045 36079 ft 419 kts 206°
2026-05-03 20:32 28.62405 -79.23934 36075 ft 419 kts 206°
2026-05-03 20:33 28.56806 -79.25824 36066 ft 420 kts 206°
2026-05-03 20:33 28.51243 -79.27700 36030 ft 420 kts 205°
2026-05-03 20:34 28.45641 -79.29587 36066 ft 420 kts 205°
2026-05-03 20:34 28.40030 -79.31474 36064 ft 418 kts 205°
2026-05-03 20:34 28.37269 -79.32395 35681 ft 411 kts 205°
2026-05-03 20:35 28.34531 -79.33312 35054 ft 409 kts 205°
2026-05-03 20:35 28.31809 -79.34226 34487 ft 407 kts 205°
2026-05-03 20:35 28.29097 -79.35137 33910 ft 406 kts 205°
2026-05-03 20:35 28.26396 -79.36044 33260 ft 404 kts 205°
2026-05-03 20:36 28.23704 -79.36949 32566 ft 403 kts 204°
2026-05-03 20:36 28.21017 -79.37851 31937 ft 402 kts 204°
2026-05-03 20:36 28.18380 -79.38734 31467 ft 398 kts 204°
2026-05-03 20:36 28.15736 -79.39617 30990 ft 395 kts 204°
2026-05-03 20:37 28.13111 -79.40494 30515 ft 391 kts 204°
2026-05-03 20:37 28.10513 -79.41362 30041 ft 388 kts 204°
2026-05-03 20:37 28.07934 -79.42224 29497 ft 385 kts 204°
2026-05-03 20:37 28.05376 -79.43077 28972 ft 382 kts 203°
2026-05-03 20:38 28.02839 -79.43924 28451 ft 379 kts 203°
2026-05-03 20:38 28.00321 -79.44765 27933 ft 376 kts 203°
2026-05-03 20:38 27.97819 -79.45600 27430 ft 373 kts 203°
2026-05-03 20:38 27.95337 -79.46428 26906 ft 371 kts 203°
2026-05-03 20:39 27.92900 -79.47241 26443 ft 369 kts 203°
2026-05-03 20:39 27.90444 -79.48060 25947 ft 367 kts 203°
2026-05-03 20:39 27.88006 -79.48872 25481 ft 365 kts 203°
2026-05-03 20:39 27.85576 -79.49681 25022 ft 363 kts 203°
2026-05-03 20:40 27.83158 -79.50486 24574 ft 361 kts 203°
2026-05-03 20:40 27.80751 -79.51286 24130 ft 360 kts 203°
2026-05-03 20:40 27.78350 -79.52085 23687 ft 359 kts 203°
2026-05-03 20:40 27.75958 -79.52880 23195 ft 358 kts 203°
2026-05-03 20:41 27.73566 -79.53675 22664 ft 358 kts 202°
2026-05-03 20:41 27.71173 -79.54456 22144 ft 358 kts 200°
2026-05-03 20:41 27.68710 -79.54976 21658 ft 362 kts 194°
2026-05-03 20:41 27.66181 -79.55172 21137 ft 366 kts 188°
2026-05-03 20:42 27.63668 -79.55224 20678 ft 365 kts 188°
2026-05-03 20:42 27.61127 -79.55274 20186 ft 365 kts 187°
2026-05-03 20:42 27.58596 -79.55324 19722 ft 364 kts 187°
2026-05-03 20:42 27.56071 -79.55377 19250 ft 362 kts 187°
2026-05-03 20:43 27.53554 -79.55433 18807 ft 361 kts 187°
2026-05-03 20:43 27.51046 -79.55491 18350 ft 360 kts 187°
2026-05-03 20:43 27.48563 -79.55549 18097 ft 351 kts 187°
2026-05-03 20:43 27.46162 -79.55601 17979 ft 342 kts 187°
2026-05-03 20:44 27.43705 -79.55669 17893 ft 369 kts 187°
2026-05-03 20:44 27.41037 -79.55751 17814 ft 394 kts 187°
2026-05-03 20:44 27.38273 -79.55823 17696 ft 399 kts 187°
2026-05-03 20:44 27.35537 -79.55885 17564 ft 399 kts 186°
2026-05-03 20:45 27.32770 -79.55946 17434 ft 398 kts 186°
2026-05-03 20:45 27.30005 -79.56007 17309 ft 397 kts 186°
2026-05-03 20:45 27.27249 -79.56071 17174 ft 396 kts 186°
2026-05-03 20:45 27.24496 -79.56136 17058 ft 394 kts 186°
2026-05-03 20:46 27.21794 -79.56198 16927 ft 383 kts 187°
2026-05-03 20:46 27.19109 -79.56264 16818 ft 392 kts 187°
2026-05-03 20:46 27.16353 -79.56336 16689 ft 400 kts 186°
2026-05-03 20:46 27.13560 -79.56405 16562 ft 402 kts 186°
2026-05-03 20:47 27.10774 -79.56471 16435 ft 400 kts 186°
2026-05-03 20:47 27.07999 -79.56536 16295 ft 398 kts 186°
2026-05-03 20:47 27.05238 -79.56602 16167 ft 397 kts 186°
2026-05-03 20:47 27.02513 -79.56668 16094 ft 397 kts 186°
2026-05-03 20:48 26.99747 -79.56735 16041 ft 398 kts 186°
2026-05-03 20:48 26.96979 -79.56802 15996 ft 398 kts 186°
2026-05-03 20:48 26.94212 -79.56869 15998 ft 397 kts 186°
2026-05-03 20:48 26.91456 -79.56963 15998 ft 395 kts 189°
2026-05-03 20:49 26.88742 -79.57357 16015 ft 391 kts 195°
2026-05-03 20:49 26.86108 -79.58047 15990 ft 388 kts 201°
2026-05-03 20:49 26.83546 -79.58980 16004 ft 387 kts 202°
2026-05-03 20:49 26.80987 -79.59924 16001 ft 387 kts 202°
2026-05-03 20:50 26.78461 -79.60849 15984 ft 388 kts 202°
2026-05-03 20:50 26.75894 -79.61782 16001 ft 388 kts 202°
2026-05-03 20:50 26.73320 -79.62712 16004 ft 389 kts 202°
2026-05-03 20:50 26.70742 -79.63641 15989 ft 390 kts 202°
2026-05-03 20:51 26.68161 -79.64570 16005 ft 390 kts 202°
2026-05-03 20:51 26.66450 -79.65185 16006 ft 390 kts 202°
2026-05-03 20:51 26.63916 -79.66242 15992 ft 387 kts 208°
2026-05-03 20:51 26.61521 -79.67602 16003 ft 385 kts 213°
2026-05-03 20:52 26.59306 -79.69160 15991 ft 368 kts 219°
2026-05-03 20:52 26.57281 -79.70801 15991 ft 350 kts 219°
2026-05-03 20:52 26.55358 -79.72367 15989 ft 335 kts 219°
2026-05-03 20:52 26.52866 -79.74398 16014 ft 337 kts 219°
2026-05-03 20:53 26.51587 -79.75439 16008 ft 336 kts 219°
2026-05-03 20:53 26.49703 -79.76967 15987 ft 334 kts 219°
2026-05-03 20:53 26.47829 -79.78483 16010 ft 332 kts 219°
2026-05-03 20:53 26.45986 -79.79971 16030 ft 331 kts 219°
2026-05-03 20:54 26.44116 -79.81482 16024 ft 333 kts 219°
2026-05-03 20:54 26.40364 -79.84506 16004 ft 332 kts 219°
2026-05-03 20:54 26.38496 -79.86009 16016 ft 331 kts 219°
2026-05-03 20:55 26.36634 -79.87508 16012 ft 330 kts 219°
2026-05-03 20:55 26.34773 -79.89012 16015 ft 330 kts 220°
2026-05-03 20:55 26.33056 -79.90693 16014 ft 328 kts 228°
2026-05-03 20:55 26.31531 -79.92534 15970 ft 329 kts 232°
2026-05-03 20:56 26.30144 -79.94591 15651 ft 334 kts 237°
2026-05-03 20:56 26.28823 -79.96725 15274 ft 334 kts 237°
2026-05-03 20:56 26.27508 -79.98849 14877 ft 332 kts 237°
2026-05-03 20:56 26.26114 -80.00846 14449 ft 326 kts 225°
2026-05-03 20:57 26.24233 -80.02264 14079 ft 328 kts 209°
2026-05-03 20:57 26.22101 -80.03041 13650 ft 319 kts 196°
2026-05-03 20:57 26.19980 -80.03506 13185 ft 307 kts 195°
2026-05-03 20:57 26.17920 -80.03940 12737 ft 297 kts 195°
2026-05-03 20:58 26.15933 -80.04365 12303 ft 288 kts 195°
2026-05-03 20:58 26.13981 -80.04796 11869 ft 284 kts 195°
2026-05-03 20:58 26.12043 -80.05234 11468 ft 284 kts 196°
2026-05-03 20:58 26.10113 -80.05673 11160 ft 282 kts 196°
2026-05-03 20:59 26.08239 -80.06100 10877 ft 282 kts 195°
2026-05-03 20:59 26.06313 -80.06546 10565 ft 282 kts 197°
2026-05-03 20:59 26.04400 -80.07039 10248 ft 282 kts 197°
2026-05-03 20:59 26.02493 -80.07542 9917 ft 281 kts 197°
2026-05-03 21:00 26.00597 -80.08040 9598 ft 279 kts 197°
2026-05-03 21:00 25.99356 -80.08365 9463 ft 275 kts 197°
2026-05-03 21:00 25.96855 -80.09017 9238 ft 278 kts 197°
2026-05-03 21:00 25.94959 -80.09510 9075 ft 281 kts 197°
2026-05-03 21:01 25.93056 -80.10004 8900 ft 280 kts 197°
2026-05-03 21:01 25.91221 -80.10668 8721 ft 276 kts 208°
2026-05-03 21:01 25.89522 -80.11627 8580 ft 273 kts 211°
2026-05-03 21:01 25.87864 -80.12636 8475 ft 271 kts 212°
2026-05-03 21:02 25.86233 -80.13624 8369 ft 271 kts 211°
2026-05-03 21:02 25.84571 -80.14618 8229 ft 271 kts 211°
2026-05-03 21:02 25.82906 -80.15601 8149 ft 272 kts 211°
2026-05-03 21:02 25.81233 -80.16580 8074 ft 272 kts 210°
2026-05-03 21:03 25.79560 -80.17552 8021 ft 270 kts 211°
2026-05-03 21:03 25.77902 -80.18508 8001 ft 268 kts 211°
2026-05-03 21:03 25.76221 -80.19479 8009 ft 276 kts 210°
2026-05-03 21:03 25.74520 -80.20463 8011 ft 275 kts 211°
2026-05-03 21:04 25.73044 -80.21656 7921 ft 266 kts 232°
2026-05-03 21:04 25.72128 -80.23431 7615 ft 268 kts 251°
2026-05-03 21:04 25.71671 -80.25442 7285 ft 269 kts 257°
2026-05-03 21:04 25.71268 -80.27466 6936 ft 270 kts 258°
2026-05-03 21:05 25.71062 -80.29538 6568 ft 270 kts 265°
2026-05-03 21:05 25.70991 -80.31610 6202 ft 265 kts 267°
2026-05-03 21:05 25.70932 -80.33607 5804 ft 254 kts 267°
2026-05-03 21:05 25.70865 -80.35527 5427 ft 245 kts 266°
2026-05-03 21:06 25.70789 -80.37359 5046 ft 237 kts 266°
2026-05-03 21:06 25.70708 -80.39148 4674 ft 229 kts 266°
2026-05-03 21:06 25.70627 -80.40888 4265 ft 223 kts 266°
2026-05-03 21:06 25.70546 -80.42585 3891 ft 219 kts 266°
2026-05-03 21:07 25.70456 -80.44285 3547 ft 222 kts 265°
2026-05-03 21:07 25.70323 -80.45987 3159 ft 221 kts 265°
2026-05-03 21:07 25.70187 -80.47656 3091 ft 217 kts 265°
2026-05-03 21:07 25.70046 -80.49349 3009 ft 222 kts 265°
2026-05-03 21:08 25.69905 -80.51038 3012 ft 219 kts 265°
2026-05-03 21:08 25.69829 -80.52682 2987 ft 215 kts 277°
2026-05-03 21:08 25.70433 -80.54181 3006 ft 218 kts 311°
2026-05-03 21:08 25.71730 -80.55058 3013 ft 225 kts 344°
2026-05-03 21:09 25.73269 -80.55296 3010 ft 223 kts 352°
2026-05-03 21:09 25.74818 -80.55455 3004 ft 223 kts 352°
2026-05-03 21:09 25.76363 -80.55544 2990 ft 223 kts
2026-05-03 21:09 25.77792 -80.54895 3005 ft 229 kts 39°
2026-05-03 21:10 25.78664 -80.53428 3012 ft 234 kts 75°
2026-05-03 21:10 25.78674 -80.51656 3005 ft 230 kts 105°
2026-05-03 21:10 25.78297 -80.49959 3004 ft 231 kts 101°
2026-05-03 21:10 25.78106 -80.48203 2972 ft 227 kts 95°
2026-05-03 21:11 25.78023 -80.46461 2694 ft 222 kts 91°
2026-05-03 21:11 25.78053 -80.44790 2381 ft 217 kts 87°
2026-05-03 21:11 25.78124 -80.43159 2111 ft 204 kts 87°
2026-05-03 21:11 25.78187 -80.41685 1842 ft 179 kts 87°
2026-05-03 21:12 25.78241 -80.40369 1637 ft 165 kts 87°
2026-05-03 21:12 25.78293 -80.39137 1434 ft 155 kts 87°
2026-05-03 21:12 25.78340 -80.37987 1237 ft 142 kts 86°
2026-05-03 21:12 25.78389 -80.36882 1053 ft 146 kts 90°
2026-05-03 21:13 25.78423 -80.35758 847 ft 145 kts 85°
2026-05-03 21:13 25.78474 -80.34672 691 ft 141 kts 86°
2026-05-03 21:13 25.78523 -80.33599 507 ft 140 kts 86°
2026-05-03 21:13 25.78573 -80.32527 318 ft 139 kts 88°
2026-05-03 21:14 25.78616 -80.31453 116 ft 141 kts 87°
2026-05-03 21:14 25.78659 -80.30392 23 ft 130 kts 87°
2026-05-03 21:14 25.78690 -80.29526 19 ft 88 kts 88°
2026-05-03 21:14 25.78709 -80.29043 19 ft 38 kts 87°
2026-05-03 21:15 25.78721 -80.28780 20 ft 26 kts 87°
2026-05-03 21:15 25.78741 -80.28584 20 ft 26 kts 76°
2026-05-03 21:15 25.78809 -80.28449 20 ft 18 kts 52°
2026-05-03 21:15 25.78845 -80.28399 20 ft 0 kts 51°
2026-05-03 21:16 25.78845 -80.28398 20 ft 0 kts 51°
2026-05-03 21:16 25.78851 -80.28389 21 ft 3 kts 51°
2026-05-03 21:16 25.78869 -80.28366 21 ft 5 kts 51°
2026-05-03 21:17 25.78897 -80.28328 21 ft 8 kts 51°
2026-05-03 21:17 25.78921 -80.28295 23 ft 9 kts 51°
2026-05-03 21:17 25.78988 -80.28232 24 ft 10 kts 357°
2026-05-03 21:17 25.79044 -80.28288 24 ft 12 kts 303°
2026-05-03 21:18 25.79091 -80.28377 20 ft 15 kts 300°
2026-05-03 21:18 25.79155 -80.28476 20 ft 17 kts 304°
2026-05-03 21:18 25.79217 -80.28594 20 ft 18 kts 300°
2026-05-03 21:18 25.79282 -80.28719 19 ft 20 kts 300°
2026-05-03 21:19 25.79351 -80.28854 19 ft 20 kts 307°
2026-05-03 21:19 25.79481 -80.28895 20 ft 20 kts 357°
2026-05-03 21:19 25.79621 -80.28903 20 ft 20 kts 357°
2026-05-03 21:19 25.79762 -80.28910 20 ft 20 kts 358°
2026-05-03 21:20 25.79890 -80.28914 21 ft 15 kts
2026-05-03 21:20 25.79932 -80.28820 20 ft 15 kts 87°
2026-05-03 21:20 25.79938 -80.28703 20 ft 15 kts 87°
2026-05-03 21:20 25.79944 -80.28586 20 ft 15 kts 87°
2026-05-03 21:21 25.79948 -80.28470 20 ft 15 kts 88°
2026-05-03 21:21 25.79945 -80.28355 20 ft 15 kts 115°
2026-05-03 21:21 25.79893 -80.28257 20 ft 15 kts 95°
2026-05-03 21:21 25.79896 -80.28139 20 ft 15 kts 87°
2026-05-03 21:22 25.79889 -80.28023 21 ft 15 kts 108°
2026-05-03 21:22 25.79881 -80.27938 20 ft 8 kts 87°
2026-05-03 21:22 25.79852 -80.27893 20 ft 8 kts 159°
2026-05-03 21:22 25.79820 -80.27888 20 ft 2 kts 178°
2026-05-03 21:23 25.79801 -80.27887 20 ft 3 kts 178°
2026-05-03 21:23 25.79782 -80.27886 20 ft 0 kts 177°